Hourly Data Report for May 28, 2021

FISHER BRANCH (AUT)
MANITOBA
Current Station Operator: ECCC - MSC

51°05'00.100" N
97°33'16.200" W
253.00 m
50309J6
71442
WSZ

Download Data

Hourly Data (May 2021)
Hourly Data Report for May 28, 2021
TIME
LST
Temp Definition
°C
Dew Point Definition
°C
Rel Hum Definition
%
Precip. Amount Definition
mm

Wind Dir Definition
10's deg

Wind Spd Definition
km/h
Visibility Definition
km
Stn Press Definition
kPa
Hmdx Definition


Wind Chill Definition


Weather Definition


00:00 3.7 -4.2 56 0.0 15 7   99.41     LegendNANA
01:00 3.7 -2.7 63 0.0 16 10   99.38     LegendNANA
02:00 2.4 -2.6 70 0.0 15 9   99.36     LegendNANA
03:00 3.6 -2.0 67 0.0 17 13   99.33     LegendNANA
04:00 3.0 -2.9 65 0.0 17 12   99.30     LegendNANA
05:00 2.9 -4.0 61 0.0 18 11   99.36     LegendNANA
06:00 4.8 -3.1 57 0.0 19 11   99.34     LegendNANA
07:00 8.5 -2.6 46 0.0 18 18   99.29     LegendNANA
08:00 11.4 -3.9 34 0.0 18 18   99.24     LegendNANA
09:00 13.3 -5.6 26 0.0 18 23   99.20     LegendNANA
10:00 14.3 -4.9 26 0.0 18 24   99.15     LegendNANA
11:00 15.7 -3.9 26 0.0 17 27   99.08     LegendNANA
12:00 16.9 -4.0 24 0.0 18 30   99.00     LegendNANA
13:00 18.6 -4.5 20 0.0 19 31   98.93     LegendNANA
14:00 18.3 -6.1 19 0.0 18 36   98.82     LegendNANA
15:00 19.2 -4.1 20 0.0 18 35   98.76     LegendNANA
16:00 20.1 -3.3 20 0.0 18 32   98.70     LegendNANA
17:00 19.8 -3.7 20 0.0 18 32   98.62     LegendNANA
18:00 19.0 -4.2 20 0.0 17 32   98.59     LegendNANA
19:00 18.0 -4.3 22 0.0 17 28   98.56     LegendNANA
20:00 17.0 -4.3 23 0.0 17 27   98.56     LegendNANA
21:00 15.4 -4.8 25 0.0 17 18   98.58     LegendNANA
22:00 13.8 -5.3 26 0.0 17 16   98.55     LegendNANA
23:00 12.7 -6.0 27 0.0 16 18   98.48     LegendNANA

Notes on Data Quality.

Legend

  • E = Estimated
  • M = Missing
  • NA = Not Available*
  • [empty] = Indicates an unobserved value
Date modified: